Regional Weather Roundup
Issued by NWS Kansas City/Pleasant Hill, MO

Home | Current Version | Previous Version | Graphics & Text | Print | Product List | Glossary Off
Versions: 1 2 3 4 5 6 7 8 9 10 11 12 13 14 15 16 17 18 19 20 21 22 23 24 25 26 27

000
ASUS43 KEAX 280510
RWREAX

WEATHER ROUNDUP FOR EASTERN KANSAS AND NORTHWEST MISSOURI
NATIONAL WEATHER SERVICE KANSAS CITY/PLEASANT HILL MO
1200 AM CDT SUN AUG 28 2016

KSZ040-057-103>105-MOZ028-029-037-043-280600-
...KANSAS CITY METROPOLITAN AREA...

CITY           SKY/WX    TMP DP  RH WIND       PRES   REMARKS
K.C. INTL      MOCLDY    73  68  84 SE6       30.07R
K.C. DOWNTOWN  CLEAR     74  71  91 CALM      30.05R
LEES SUMMIT    CLEAR     77  72  84 SE5       30.08R
OLATHE - IXD   CLEAR     76  72  87 E7        30.07R
OLATHE - OJC   CLEAR     76  72  87 SE3       30.08R
LAWRENCE       CLEAR     69  69 100 E5        30.05S

$$

MOZ001>008-011>017-020>025-030>033-038>040-044>046-053-054-280600-
...NORTHERN AND CENTRAL MISSOURI...

CITY           SKY/WX    TMP DP  RH WIND       PRES   REMARKS
ST. JOSEPH     CLOUDY    74  69  85 SE6       30.07R
MOSBY          CLEAR     72  72 100 CALM      30.06S
WHITEMAN AFB   CLEAR     74  74 100 S5        30.07R
CLINTON        CLEAR     73  72  94 CALM      30.08R FOG
SEDALIA        CLEAR     74  71  91 S6        30.10R
WARSAW         NOT AVBL
CHILLICOTHE    NOT AVBL
KIRKSVILLE     PTCLDY    72  70  93 SE3       30.10R

$$

MOZ041-047>049-056>058-063>065-088>090-097-280600-
...EASTERN AND SOUTHERN MISSOURI...

CITY           SKY/WX    TMP DP  RH WIND       PRES   REMARKS
ST. LOUIS INTL CLOUDY    78  70  76 E6        30.11R
SPIRIT OF STL  CLOUDY    75  74  96 CALM      30.08S
COLUMBIA       CLOUDY    76  74  93 SE6       30.10R
JEFFERSON CITY CLEAR     75  72  90 SE5       30.08R
ROLLA          PTCLDY    73  71  93 E3        30.11R
OSAGE BEACH    CLEAR     73  71  93 CALM      30.11R
SPRINGFIELD    CLEAR     75  68  78 S7        30.10R
BRANSON        CLEAR     73  72  94 CALM      30.11F
JOPLIN         CLEAR     74  70  87 CALM      30.08R
WEST PLAINS    CLEAR     72  69  90 CALM      30.14S

$$

IAZ060-094-KSZ022-034>040-054-083-096-NEZ052-066-093-280600-
...KANSAS...SOUTHEAST NEBRASKA AND IOWA...

CITY           SKY/WX    TMP DP  RH WIND       PRES   REMARKS
TOPEKA         CLEAR     73  69  87 CALM      30.05R
MANHATTAN      PTCLDY    73  71  93 CALM      30.05R
EMPORIA        CLEAR     71  68  90 S7        30.07R
CHANUTE        CLEAR     76  71  85 SE6       30.06R
WICHITA        PTCLDY    78  68  71 SE7       30.04S
OMAHA          CLEAR     72  66  81 SE7       30.06R
LINCOLN        CLOUDY    69  64  84 CALM      30.07R
FALLS CITY     CLEAR     70  68  93 CALM      30.05R
LAMONI         CLEAR     68  68 100 NE5       30.09R
DES MOINES     PTCLDY    72  69  90 CALM      30.08R

$$





USA.gov is the U.S. government's official web portal to all federal, state and local government web resources and services.